Precipitable_Water
0.32 0.32 0.31 0.30 0.29 0.28 0.26 0.25 0.25 0.24 0.23 0.21 0.19 0.17 0.16 0.15 0.15 0.14 0.15 0.14 0.14 0.14 0.13 0.13 0.13 0.13 0.13 0.13 0.12 0.12 0.12 0.12 0.12 0.12 0.11 0.11 0.11 0.11 0.11 0.11 0.10 0.10 0.10 0.10 0.11 0.11 0.11 0.10 0.11 0.11 0.12 0.11 0.11 0.12 0.12 0.12 0.13 0.13 0.13 0.13 0.13 0.13 0.13 0.13 0.11 0.10 0.12 0.15 0.13 0.12 0.13 0.13 0.11 0.12 0.11 0.12 0.13 0.15 0.17 0.18 0.18 0.19 0.19 0.19 0.19
0.33 0.32 0.32 0.31 0.29 0.28 0.26 0.25 0.23 0.22 0.19 0.16 0.15 0.15 0.15 0.16 0.16 0.17 0.16 0.17 0.17 0.16 0.16 0.16 0.15 0.15 0.14 0.14 0.14 0.13 0.13 0.13 0.13 0.12 0.11 0.11 0.11 0.11 0.11 0.11 0.10 0.10 0.11 0.10 0.11 0.11 0.11 0.11 0.11 0.11 0.12 0.11 0.11 0.11 0.12 0.12 0.12 0.12 0.12 0.12 0.12 0.12 0.14 0.13 0.12 0.11 0.10 0.12 0.13 0.14 0.14 0.15 0.12 0.12 0.12 0.11 0.11 0.13 0.14 0.15 0.17 0.18 0.18 0.18 0.19
0.33 0.33 0.31 0.30 0.28 0.26 0.25 0.23 0.20 0.18 0.17 0.16 0.16 0.17 0.17 0.18 0.18 0.17 0.17 0.17 0.18 0.18 0.17 0.17 0.17 0.16 0.16 0.15 0.15 0.14 0.14 0.13 0.13 0.12 0.12 0.11 0.11 0.11 0.11 0.11 0.11 0.11 0.11 0.11 0.11 0.12 0.11 0.11 0.11 0.12 0.12 0.11 0.11 0.12 0.12 0.12 0.12 0.12 0.11 0.12 0.12 0.12 0.12 0.13 0.12 0.10 0.10 0.10 0.12 0.12 0.13 0.14 0.13 0.12 0.13 0.13 0.13 0.13 0.13 0.13 0.14 0.16 0.17 0.18 0.18
0.32 0.31 0.29 0.28 0.26 0.24 0.22 0.19 0.18 0.18 0.18 0.18 0.18 0.18 0.18 0.18 0.19 0.19 0.19 0.19 0.18 0.19 0.18 0.18 0.18 0.17 0.16 0.16 0.15 0.15 0.14 0.14 0.13 0.13 0.12 0.12 0.11 0.11 0.11 0.11 0.11 0.11 0.11 0.11 0.12 0.12 0.11 0.11 0.11 0.11 0.11 0.11 0.11 0.11 0.11 0.12 0.12 0.12 0.12 0.12 0.12 0.12 0.12 0.12 0.12 0.11 0.11 0.10 0.10 0.11 0.12 0.13 0.13 0.14 0.14 0.14 0.13 0.13 0.13 0.13 0.13 0.14 0.15 0.17 0.17
0.31 0.29 0.28 0.25 0.22 0.20 0.18 0.19 0.19 0.19 0.19 0.19 0.18 0.19 0.19 0.19 0.20 0.19 0.19 0.19 0.19 0.19 0.19 0.19 0.18 0.18 0.17 0.16 0.15 0.15 0.14 0.14 0.13 0.13 0.12 0.12 0.12 0.12 0.12 0.12 0.12 0.12 0.12 0.12 0.12 0.12 0.12 0.11 0.11 0.11 0.11 0.10 0.11 0.11 0.11 0.11 0.11 0.11 0.11 0.11 0.12 0.12 0.12 0.12 0.12 0.12 0.11 0.10 0.10 0.11 0.13 0.13 0.14 0.14 0.14 0.13 0.13 0.13 0.13 0.13 0.13 0.13 0.14 0.15 0.17
0.29 0.26 0.24 0.20 0.19 0.19 0.19 0.20 0.20 0.19 0.19 0.19 0.19 0.19 0.20 0.20 0.20 0.20 0.20 0.19 0.19 0.19 0.19 0.19 0.18 0.17 0.17 0.16 0.16 0.15 0.15 0.14 0.13 0.13 0.12 0.12 0.12 0.12 0.12 0.12 0.12 0.12 0.12 0.12 0.12 0.12 0.12 0.11 0.11 0.12 0.11 0.11 0.11 0.11 0.11 0.11 0.11 0.11 0.11 0.11 0.12 0.12 0.12 0.12 0.12 0.12 0.12 0.11 0.11 0.10 0.11 0.12 0.12 0.13 0.14 0.14 0.13 0.12 0.12 0.13 0.14 0.14 0.14 0.13 0.14
0.25 0.23 0.22 0.21 0.20 0.20 0.20 0.20 0.20 0.19 0.19 0.19 0.20 0.21 0.21 0.21 0.21 0.20 0.20 0.20 0.19 0.19 0.19 0.18 0.18 0.17 0.16 0.16 0.16 0.15 0.15 0.14 0.14 0.13 0.12 0.12 0.12 0.12 0.12 0.12 0.12 0.12 0.12 0.12 0.12 0.12 0.12 0.12 0.12 0.12 0.11 0.11 0.11 0.11 0.11 0.11 0.12 0.12 0.12 0.12 0.12 0.12 0.12 0.12 0.12 0.12 0.12 0.11 0.11 0.11 0.11 0.12 0.13 0.12 0.13 0.15 0.15 0.14 0.12 0.12 0.12 0.13 0.14 0.14 0.13
0.26 0.24 0.22 0.21 0.21 0.21 0.20 0.20 0.20 0.20 0.20 0.20 0.21 0.21 0.22 0.21 0.21 0.20 0.20 0.19 0.19 0.19 0.18 0.18 0.17 0.17 0.16 0.16 0.15 0.15 0.14 0.14 0.13 0.13 0.13 0.13 0.13 0.13 0.13 0.12 0.12 0.12 0.12 0.12 0.12 0.12 0.12 0.12 0.12 0.12 0.12 0.12 0.12 0.12 0.12 0.12 0.12 0.11 0.12 0.12 0.12 0.12 0.12 0.12 0.12 0.12 0.12 0.11 0.11 0.10 0.11 0.11 0.12 0.14 0.15 0.15 0.14 0.13 0.14 0.14 0.13 0.11 0.12 0.14 0.15
0.26 0.23 0.22 0.22 0.21 0.21 0.20 0.20 0.20 0.20 0.20 0.21 0.22 0.22 0.22 0.21 0.21 0.20 0.20 0.19 0.19 0.19 0.18 0.18 0.17 0.16 0.16 0.15 0.15 0.15 0.14 0.14 0.13 0.13 0.13 0.14 0.14 0.13 0.13 0.12 0.12 0.12 0.12 0.12 0.12 0.12 0.12 0.12 0.12 0.12 0.12 0.12 0.13 0.13 0.13 0.12 0.12 0.11 0.11 0.11 0.11 0.11 0.11 0.11 0.11 0.11 0.11 0.11 0.11 0.12 0.12 0.12 0.13 0.13 0.13 0.14 0.14 0.14 0.15 0.16 0.15 0.14 0.14 0.13 0.14
0.26 0.23 0.22 0.22 0.21 0.20 0.20 0.20 0.20 0.21 0.21 0.21 0.22 0.22 0.21 0.21 0.21 0.20 0.19 0.19 0.19 0.19 0.18 0.18 0.17 0.17 0.16 0.15 0.15 0.14 0.14 0.14 0.13 0.14 0.14 0.14 0.14 0.13 0.13 0.13 0.13 0.12 0.12 0.12 0.12 0.12 0.12 0.11 0.11 0.12 0.12 0.12 0.12 0.11 0.11 0.12 0.12 0.12 0.12 0.12 0.12 0.11 0.11 0.11 0.10 0.10 0.10 0.10 0.10 0.10 0.10 0.11 0.12 0.13 0.13 0.15 0.17 0.18 0.17 0.17 0.16 0.16 0.16 0.15 0.15
0.25 0.23 0.23 0.22 0.20 0.20 0.20 0.20 0.20 0.21 0.21 0.22 0.22 0.22 0.21 0.21 0.20 0.20 0.19 0.19 0.19 0.18 0.18 0.18 0.17 0.17 0.16 0.15 0.14 0.14 0.14 0.13 0.14 0.14 0.14 0.14 0.14 0.14 0.13 0.13 0.13 0.12 0.12 0.12 0.11 0.11 0.11 0.11 0.11 0.11 0.11 0.11 0.11 0.11 0.11 0.12 0.12 0.12 0.12 0.12 0.13 0.12 0.11 0.11 0.11 0.11 0.11 0.11 0.11 0.11 0.11 0.10 0.11 0.12 0.12 0.13 0.14 0.14 0.14 0.16 0.17 0.17 0.16 0.15 0.13
0.25 0.24 0.22 0.20 0.20 0.19 0.20 0.20 0.21 0.21 0.22 0.22 0.22 0.21 0.21 0.20 0.20 0.19 0.19 0.19 0.19 0.19 0.18 0.18 0.17 0.17 0.16 0.15 0.14 0.14 0.13 0.13 0.14 0.14 0.14 0.14 0.14 0.14 0.13 0.13 0.13 0.12 0.12 0.11 0.11 0.11 0.10 0.10 0.11 0.11 0.11 0.11 0.11 0.11 0.11 0.11 0.11 0.11 0.11 0.12 0.12 0.13 0.14 0.13 0.12 0.12 0.12 0.11 0.11 0.11 0.12 0.11 0.12 0.13 0.13 0.13 0.13 0.13 0.14 0.14 0.14 0.14 0.15 0.15 0.15
0.25 0.23 0.21 0.19 0.19 0.19 0.20 0.21 0.21 0.22 0.22 0.22 0.22 0.21 0.21 0.20 0.20 0.19 0.19 0.19 0.19 0.18 0.18 0.18 0.17 0.16 0.15 0.14 0.14 0.14 0.13 0.13 0.13 0.14 0.14 0.14 0.14 0.14 0.13 0.13 0.13 0.12 0.12 0.11 0.11 0.11 0.10 0.10 0.10 0.11 0.11 0.11 0.11 0.10 0.10 0.10 0.10 0.11 0.11 0.12 0.12 0.12 0.13 0.13 0.14 0.14 0.14 0.13 0.12 0.11 0.12 0.13 0.12 0.13 0.14 0.14 0.15 0.14 0.14 0.14 0.13 0.13 0.13 0.14 0.14
0.23 0.21 0.20 0.19 0.19 0.20 0.20 0.21 0.21 0.22 0.22 0.22 0.21 0.21 0.20 0.20 0.20 0.20 0.19 0.19 0.19 0.18 0.18 0.17 0.17 0.16 0.15 0.14 0.14 0.13 0.13 0.13 0.13 0.13 0.13 0.13 0.13 0.14 0.14 0.13 0.12 0.12 0.11 0.11 0.11 0.11 0.11 0.11 0.10 0.10 0.11 0.11 0.10 0.10 0.10 0.10 0.10 0.11 0.11 0.11 0.11 0.12 0.13 0.13 0.13 0.14 0.14 0.13 0.12 0.12 0.13 0.14 0.13 0.13 0.15 0.16 0.16 0.15 0.15 0.15 0.16 0.16 0.16 0.16 0.16
0.21 0.20 0.19 0.20 0.20 0.20 0.21 0.21 0.21 0.21 0.21 0.21 0.21 0.20 0.20 0.20 0.20 0.20 0.20 0.19 0.18 0.18 0.17 0.17 0.16 0.16 0.15 0.14 0.13 0.13 0.13 0.13 0.13 0.13 0.13 0.13 0.13 0.14 0.13 0.13 0.12 0.11 0.12 0.12 0.11 0.11 0.11 0.11 0.11 0.10 0.10 0.10 0.11 0.11 0.11 0.11 0.11 0.11 0.12 0.12 0.12 0.13 0.13 0.13 0.14 0.14 0.14 0.14 0.14 0.14 0.14 0.15 0.15 0.16 0.17 0.18 0.19 0.19 0.19 0.19 0.19 0.19 0.19 0.20 0.19
0.20 0.20 0.20 0.20 0.20 0.21 0.21 0.21 0.21 0.21 0.21 0.21 0.20 0.20 0.20 0.20 0.20 0.20 0.19 0.19 0.18 0.18 0.17 0.17 0.16 0.15 0.15 0.14 0.13 0.12 0.12 0.12 0.12 0.12 0.12 0.13 0.13 0.13 0.12 0.12 0.12 0.12 0.12 0.12 0.12 0.12 0.12 0.12 0.11 0.11 0.10 0.11 0.11 0.12 0.12 0.13 0.12 0.12 0.12 0.13 0.13 0.13 0.14 0.15 0.15 0.16 0.16 0.16 0.16 0.16 0.16 0.17 0.18 0.19 0.20 0.21 0.21 0.21 0.21 0.20 0.20 0.19 0.17 0.15 0.14
0.19 0.20 0.20 0.21 0.21 0.21 0.21 0.21 0.21 0.20 0.20 0.20 0.20 0.20 0.20 0.20 0.19 0.19 0.19 0.18 0.18 0.17 0.17 0.17 0.16 0.15 0.14 0.14 0.13 0.12 0.11 0.11 0.11 0.12 0.12 0.12 0.13 0.12 0.12 0.12 0.12 0.12 0.12 0.12 0.12 0.12 0.12 0.12 0.11 0.11 0.11 0.11 0.12 0.13 0.13 0.14 0.13 0.13 0.13 0.13 0.13 0.14 0.14 0.15 0.16 0.17 0.17 0.17 0.18 0.18 0.19 0.19 0.18 0.19 0.21 0.21 0.21 0.21 0.20 0.18 0.17 0.16 0.13 0.12 0.12
0.19 0.20 0.20 0.20 0.20 0.20 0.20 0.20 0.20 0.20 0.20 0.19 0.19 0.19 0.19 0.19 0.19 0.19 0.18 0.18 0.17 0.17 0.17 0.16 0.16 0.15 0.14 0.13 0.12 0.11 0.11 0.11 0.11 0.11 0.12 0.12 0.13 0.12 0.12 0.12 0.12 0.12 0.12 0.12 0.12 0.12 0.12 0.12 0.12 0.12 0.12 0.12 0.13 0.14 0.14 0.15 0.14 0.14 0.14 0.14 0.13 0.13 0.14 0.15 0.16 0.16 0.17 0.18 0.18 0.19 0.19 0.19 0.19 0.19 0.20 0.20 0.20 0.20 0.19 0.16 0.16 0.15 0.13 0.12 0.11
0.18 0.17 0.18 0.18 0.19 0.19 0.19 0.19 0.19 0.19 0.19 0.19 0.19 0.19 0.19 0.19 0.19 0.19 0.18 0.18 0.18 0.17 0.17 0.16 0.15 0.14 0.14 0.13 0.12 0.11 0.10 0.10 0.10 0.11 0.11 0.12 0.13 0.13 0.13 0.12 0.12 0.11 0.11 0.11 0.11 0.11 0.11 0.12 0.12 0.13 0.13 0.14 0.14 0.15 0.15 0.15 0.15 0.15 0.15 0.14 0.14 0.13 0.14 0.16 0.16 0.16 0.16 0.17 0.17 0.18 0.18 0.19 0.19 0.19 0.20 0.20 0.20 0.20 0.19 0.18 0.17 0.15 0.13 0.13 0.13
0.17 0.18 0.18 0.18 0.19 0.18 0.18 0.18 0.18 0.19 0.19 0.19 0.19 0.19 0.19 0.19 0.19 0.19 0.18 0.18 0.18 0.17 0.17 0.15 0.14 0.14 0.13 0.12 0.10 0.10 0.09 0.09 0.10 0.11 0.11 0.12 0.13 0.13 0.13 0.12 0.11 0.11 0.11 0.11 0.10 0.11 0.12 0.12 0.12 0.13 0.13 0.14 0.14 0.15 0.15 0.16 0.16 0.16 0.16 0.15 0.14 0.14 0.16 0.16 0.16 0.17 0.16 0.17 0.17 0.17 0.18 0.18 0.18 0.19 0.20 0.20 0.20 0.20 0.19 0.18 0.17 0.16 0.14 0.13 0.13
0.19 0.19 0.19 0.19 0.19 0.19 0.19 0.19 0.19 0.19 0.19 0.19 0.19 0.19 0.19 0.19 0.19 0.19 0.18 0.18 0.18 0.17 0.16 0.15 0.14 0.13 0.12 0.10 0.10 0.09 0.09 0.09 0.09 0.11 0.11 0.12 0.13 0.13 0.12 0.12 0.12 0.11 0.11 0.11 0.11 0.11 0.11 0.12 0.12 0.13 0.14 0.14 0.15 0.15 0.16 0.17 0.17 0.17 0.16 0.16 0.16 0.17 0.17 0.17 0.17 0.18 0.17 0.17 0.17 0.17 0.17 0.17 0.18 0.18 0.19 0.19 0.20 0.20 0.20 0.19 0.18 0.17 0.16 0.15 0.14
0.19 0.19 0.19 0.19 0.19 0.19 0.19 0.19 0.19 0.19 0.19 0.19 0.19 0.19 0.19 0.19 0.19 0.19 0.18 0.18 0.17 0.16 0.15 0.14 0.13 0.11 0.10 0.09 0.09 0.09 0.09 0.10 0.10 0.11 0.11 0.12 0.13 0.13 0.13 0.12 0.13 0.12 0.12 0.11 0.12 0.11 0.12 0.12 0.12 0.13 0.14 0.15 0.15 0.16 0.17 0.17 0.17 0.17 0.17 0.17 0.17 0.18 0.18 0.17 0.17 0.17 0.17 0.17 0.16 0.16 0.15 0.15 0.15 0.15 0.15 0.16 0.17 0.18 0.18 0.18 0.18 0.18 0.18 0.17 0.16
0.19 0.19 0.19 0.19 0.19 0.20 0.20 0.19 0.19 0.19 0.19 0.19 0.19 0.19 0.19 0.19 0.19 0.18 0.18 0.17 0.16 0.15 0.14 0.13 0.12 0.10 0.09 0.09 0.09 0.09 0.09 0.10 0.10 0.11 0.12 0.12 0.13 0.13 0.13 0.13 0.14 0.13 0.12 0.11 0.11 0.12 0.13 0.13 0.13 0.14 0.15 0.16 0.16 0.17 0.17 0.17 0.17 0.17 0.17 0.17 0.17 0.17 0.17 0.17 0.17 0.16 0.16 0.15 0.15 0.14 0.14 0.14 0.13 0.13 0.14 0.14 0.15 0.16 0.17 0.17 0.18 0.18 0.18 0.18 0.18
0.20 0.20 0.20 0.20 0.20 0.20 0.20 0.19 0.19 0.19 0.19 0.19 0.19 0.19 0.19 0.19 0.18 0.18 0.17 0.17 0.15 0.14 0.13 0.12 0.11 0.09 0.08 0.08 0.09 0.09 0.10 0.10 0.11 0.11 0.12 0.12 0.13 0.13 0.13 0.13 0.13 0.13 0.13 0.13 0.13 0.13 0.13 0.13 0.14 0.15 0.16 0.16 0.16 0.16 0.17 0.16 0.16 0.15 0.16 0.16 0.16 0.17 0.17 0.16 0.15 0.14 0.14 0.13 0.13 0.13 0.13 0.13 0.14 0.14 0.14 0.15 0.16 0.16 0.16 0.17 0.17 0.17 0.17 0.17 0.17
0.20 0.20 0.20 0.20 0.20 0.20 0.19 0.19 0.19 0.18 0.18 0.18 0.18 0.18 0.18 0.18 0.18 0.18 0.17 0.16 0.15 0.13 0.12 0.11 0.10 0.09 0.09 0.08 0.09 0.09 0.10 0.10 0.11 0.12 0.12 0.12 0.12 0.12 0.12 0.13 0.13 0.14 0.13 0.14 0.14 0.14 0.14 0.15 0.15 0.16 0.16 0.16 0.16 0.15 0.15 0.14 0.14 0.14 0.15 0.15 0.16 0.15 0.15 0.14 0.14 0.14 0.13 0.13 0.13 0.13 0.14 0.15 0.15 0.15 0.16 0.16 0.16 0.16 0.16 0.16 0.17 0.17 0.17 0.16 0.16
0.21 0.21 0.20 0.20 0.19 0.19 0.18 0.18 0.18 0.18 0.18 0.18 0.18 0.18 0.18 0.18 0.18 0.17 0.17 0.16 0.14 0.13 0.12 0.11 0.10 0.09 0.09 0.09 0.09 0.10 0.10 0.11 0.11 0.12 0.12 0.12 0.12 0.12 0.12 0.13 0.13 0.14 0.14 0.14 0.14 0.14 0.15 0.15 0.16 0.16 0.15 0.14 0.14 0.14 0.13 0.13 0.13 0.13 0.14 0.14 0.14 0.13 0.14 0.13 0.13 0.13 0.13 0.13 0.13 0.14 0.14 0.15 0.16 0.16 0.16 0.16 0.16 0.15 0.16 0.15 0.14 0.14 0.15 0.15 0.14
0.21 0.20 0.20 0.19 0.18 0.17 0.17 0.17 0.17 0.17 0.18 0.18 0.18 0.18 0.18 0.18 0.18 0.17 0.16 0.15 0.14 0.13 0.12 0.11 0.10 0.10 0.09 0.10 0.10 0.10 0.11 0.11 0.12 0.12 0.12 0.11 0.11 0.12 0.12 0.13 0.13 0.13 0.13 0.14 0.14 0.15 0.15 0.15 0.15 0.14 0.14 0.13 0.13 0.13 0.12 0.12 0.12 0.12 0.12 0.13 0.13 0.14 0.14 0.14 0.13 0.13 0.13 0.14 0.14 0.14 0.15 0.16 0.16 0.16 0.15 0.15 0.15 0.15 0.16 0.15 0.14 0.14 0.14 0.15 0.14
0.20 0.19 0.19 0.18 0.17 0.17 0.17 0.17 0.17 0.17 0.18 0.18 0.18 0.18 0.18 0.18 0.17 0.16 0.16 0.15 0.13 0.12 0.11 0.11 0.11 0.10 0.10 0.10 0.10 0.11 0.11 0.12 0.12 0.11 0.11 0.12 0.12 0.13 0.13 0.13 0.13 0.14 0.14 0.14 0.14 0.15 0.14 0.14 0.13 0.12 0.12 0.11 0.11 0.11 0.11 0.11 0.12 0.12 0.12 0.13 0.13 0.13 0.14 0.14 0.14 0.14 0.14 0.14 0.14 0.15 0.15 0.15 0.15 0.15 0.15 0.15 0.15 0.15 0.16 0.15 0.15 0.14 0.15 0.15 0.13
0.19 0.19 0.18 0.17 0.17 0.17 0.17 0.17 0.17 0.17 0.17 0.18 0.18 0.17 0.17 0.16 0.16 0.16 0.16 0.15 0.14 0.13 0.12 0.12 0.12 0.12 0.11 0.11 0.11 0.11 0.11 0.11 0.12 0.13 0.13 0.13 0.13 0.13 0.13 0.13 0.14 0.14 0.14 0.14 0.14 0.14 0.13 0.12 0.11 0.11 0.10 0.10 0.10 0.10 0.10 0.11 0.11 0.12 0.12 0.12 0.12 0.13 0.13 0.13 0.13 0.13 0.14 0.14 0.14 0.14 0.15 0.15 0.15 0.15 0.15 0.15 0.15 0.15 0.16 0.16 0.15 0.15 0.15 0.15 0.14
0.19 0.18 0.18 0.17 0.17 0.17 0.17 0.17 0.17 0.17 0.17 0.17 0.17 0.17 0.17 0.17 0.16 0.15 0.15 0.15 0.15 0.14 0.14 0.13 0.13 0.13 0.12 0.13 0.13 0.12 0.12 0.12 0.13 0.13 0.13 0.13 0.13 0.14 0.14 0.14 0.14 0.14 0.14 0.14 0.13 0.12 0.11 0.10 0.10 0.10 0.10 0.10 0.10 0.10 0.10 0.10 0.10 0.11 0.11 0.12 0.12 0.12 0.13 0.13 0.13 0.13 0.14 0.14 0.14 0.14 0.14 0.15 0.15 0.15 0.15 0.15 0.15 0.15 0.16 0.16 0.15 0.16 0.15 0.14 0.14
0.18 0.18 0.17 0.17 0.17 0.17 0.17 0.17 0.17 0.17 0.17 0.17 0.16 0.16 0.16 0.16 0.16 0.16 0.15 0.15 0.15 0.15 0.15 0.15 0.15 0.15 0.15 0.14 0.15 0.15 0.14 0.14 0.13 0.12 0.13 0.13 0.13 0.14 0.14 0.14 0.14 0.14 0.14 0.13 0.12 0.11 0.10 0.10 0.10 0.10 0.10 0.10 0.10 0.10 0.10 0.10 0.10 0.10 0.11 0.11 0.12 0.12 0.12 0.13 0.13 0.13 0.14 0.14 0.14 0.14 0.15 0.15 0.14 0.15 0.14 0.14 0.14 0.15 0.15 0.16 0.16 0.16 0.15 0.15 0.14
0.18 0.18 0.18 0.17 0.17 0.17 0.17 0.17 0.17 0.17 0.16 0.16 0.16 0.15 0.15 0.14 0.14 0.14 0.14 0.14 0.14 0.14 0.14 0.14 0.14 0.15 0.15 0.15 0.15 0.14 0.13 0.12 0.12 0.13 0.13 0.13 0.13 0.13 0.14 0.14 0.13 0.13 0.13 0.13 0.11 0.10 0.10 0.10 0.10 0.09 0.10 0.10 0.10 0.10 0.10 0.10 0.10 0.10 0.11 0.11 0.11 0.12 0.12 0.13 0.13 0.14 0.14 0.14 0.14 0.14 0.14 0.14 0.14 0.14 0.14 0.14 0.14 0.14 0.15 0.15 0.15 0.15 0.15 0.15 0.15
0.18 0.18 0.18 0.17 0.17 0.17 0.17 0.17 0.17 0.16 0.16 0.15 0.15 0.15 0.14 0.13 0.13 0.13 0.13 0.13 0.14 0.13 0.14 0.14 0.14 0.14 0.15 0.14 0.14 0.14 0.13 0.12 0.12 0.12 0.13 0.13 0.13 0.13 0.14 0.13 0.13 0.13 0.13 0.12 0.11 0.10 0.10 0.10 0.10 0.10 0.10 0.10 0.10 0.10 0.10 0.10 0.10 0.11 0.11 0.11 0.11 0.12 0.13 0.13 0.14 0.14 0.14 0.14 0.14 0.14 0.14 0.14 0.14 0.14 0.14 0.14 0.14 0.14 0.14 0.14 0.14 0.15 0.15 0.15 0.15
0.19 0.18 0.18 0.17 0.17 0.17 0.17 0.17 0.16 0.16 0.15 0.15 0.14 0.14 0.14 0.13 0.12 0.12 0.12 0.12 0.12 0.13 0.13 0.13 0.14 0.14 0.14 0.14 0.13 0.13 0.12 0.12 0.12 0.13 0.13 0.13 0.13 0.13 0.13 0.12 0.12 0.13 0.12 0.11 0.10 0.10 0.10 0.10 0.10 0.10 0.10 0.10 0.10 0.10 0.10 0.10 0.10 0.11 0.11 0.11 0.12 0.12 0.13 0.13 0.14 0.14 0.14 0.14 0.14 0.14 0.14 0.14 0.14 0.14 0.14 0.14 0.14 0.14 0.14 0.14 0.15 0.15 0.15 0.15 0.15
0.19 0.18 0.18 0.17 0.17 0.17 0.17 0.17 0.16 0.15 0.15 0.14 0.14 0.13 0.13 0.13 0.12 0.12 0.11 0.11 0.11 0.11 0.12 0.12 0.13 0.13 0.13 0.13 0.12 0.12 0.12 0.12 0.12 0.13 0.13 0.12 0.13 0.13 0.12 0.11 0.12 0.12 0.11 0.11 0.11 0.11 0.10 0.10 0.10 0.10 0.10 0.10 0.10 0.10 0.10 0.10 0.10 0.11 0.11 0.11 0.11 0.12 0.13 0.13 0.13 0.14 0.14 0.14 0.14 0.14 0.14 0.14 0.14 0.14 0.14 0.14 0.13 0.13 0.14 0.14 0.15 0.15 0.16 0.16 0.16
0.18 0.18 0.18 0.17 0.17 0.17 0.17 0.16 0.16 0.15 0.14 0.14 0.13 0.13 0.13 0.12 0.12 0.12 0.12 0.11 0.11 0.11 0.12 0.12 0.12 0.13 0.13 0.12 0.12 0.12 0.12 0.12 0.12 0.12 0.12 0.12 0.12 0.12 0.11 0.11 0.11 0.11 0.11 0.11 0.11 0.11 0.11 0.10 0.10 0.10 0.10 0.10 0.10 0.10 0.10 0.10 0.11 0.11 0.11 0.11 0.11 0.12 0.12 0.13 0.13 0.14 0.14 0.14 0.14 0.15 0.15 0.14 0.14 0.14 0.14 0.14 0.14 0.14 0.14 0.14 0.15 0.16 0.16 0.17 0.17
0.18 0.18 0.18 0.17 0.17 0.16 0.16 0.16 0.16 0.15 0.14 0.14 0.13 0.13 0.12 0.12 0.12 0.12 0.12 0.12 0.11 0.12 0.11 0.12 0.12 0.12 0.12 0.11 0.11 0.11 0.11 0.12 0.12 0.12 0.12 0.12 0.12 0.11 0.11 0.12 0.11 0.11 0.11 0.11 0.11 0.11 0.10 0.10 0.10 0.10 0.10 0.10 0.11 0.11 0.11 0.11 0.11 0.11 0.11 0.12 0.12 0.12 0.12 0.13 0.13 0.14 0.14 0.14 0.14 0.15 0.14 0.14 0.14 0.14 0.14 0.13 0.13 0.14 0.14 0.14 0.14 0.15 0.16 0.17 0.18
0.19 0.18 0.17 0.17 0.17 0.16 0.16 0.16 0.15 0.15 0.14 0.14 0.13 0.13 0.12 0.12 0.12 0.12 0.12 0.12 0.12 0.11 0.11 0.11 0.11 0.11 0.10 0.10 0.10 0.10 0.11 0.11 0.11 0.11 0.11 0.11 0.11 0.11 0.12 0.11 0.11 0.10 0.10 0.11 0.11 0.10 0.10 0.10 0.10 0.10 0.11 0.11 0.11 0.11 0.11 0.11 0.11 0.11 0.11 0.12 0.12 0.12 0.13 0.13 0.14 0.14 0.14 0.14 0.14 0.14 0.14 0.14 0.14 0.14 0.14 0.14 0.14 0.13 0.14 0.14 0.14 0.14 0.16 0.17 0.18
0.19 0.18 0.17 0.17 0.17 0.16 0.16 0.15 0.15 0.14 0.14 0.13 0.13 0.13 0.12 0.12 0.12 0.12 0.12 0.12 0.12 0.11 0.11 0.11 0.11 0.10 0.10 0.10 0.10 0.10 0.10 0.10 0.10 0.10 0.10 0.11 0.11 0.12 0.11 0.11 0.10 0.10 0.10 0.10 0.10 0.10 0.10 0.10 0.10 0.10 0.10 0.11 0.11 0.11 0.11 0.11 0.11 0.11 0.12 0.12 0.12 0.12 0.13 0.13 0.13 0.14 0.14 0.14 0.14 0.14 0.14 0.14 0.14 0.14 0.14 0.14 0.14 0.14 0.14 0.14 0.14 0.14 0.15 0.16 0.17
0.18 0.18 0.17 0.17 0.16 0.16 0.15 0.15 0.14 0.14 0.13 0.13 0.13 0.13 0.12 0.12 0.12 0.12 0.12 0.12 0.11 0.11 0.11 0.10 0.10 0.10 0.10 0.10 0.10 0.10 0.10 0.10 0.10 0.10 0.11 0.11 0.11 0.11 0.11 0.10 0.10 0.10 0.10 0.10 0.10 0.09 0.09 0.09 0.10 0.10 0.10 0.10 0.10 0.10 0.11 0.11 0.11 0.11 0.12 0.12 0.12 0.12 0.12 0.13 0.13 0.13 0.14 0.14 0.14 0.14 0.14 0.14 0.14 0.14 0.14 0.14 0.14 0.14 0.14 0.14 0.14 0.15 0.15 0.16 0.17
0.18 0.17 0.17 0.16 0.16 0.16 0.15 0.15 0.14 0.14 0.14 0.13 0.13 0.13 0.12 0.12 0.12 0.12 0.12 0.11 0.11 0.11 0.10 0.10 0.10 0.10 0.09 0.10 0.10 0.10 0.10 0.10 0.10 0.11 0.11 0.11 0.11 0.11 0.10 0.10 0.10 0.10 0.10 0.10 0.09 0.09 0.09 0.09 0.09 0.09 0.09 0.10 0.10 0.10 0.10 0.10 0.11 0.11 0.11 0.12 0.12 0.12 0.12 0.13 0.13 0.13 0.14 0.14 0.14 0.14 0.14 0.14 0.14 0.14 0.14 0.14 0.15 0.15 0.15 0.15 0.15 0.15 0.15 0.16 0.17
0.17 0.16 0.16 0.16 0.15 0.15 0.15 0.14 0.14 0.14 0.14 0.13 0.13 0.13 0.12 0.12 0.12 0.12 0.12 0.11 0.11 0.11 0.10 0.10 0.10 0.09 0.09 0.10 0.10 0.10 0.10 0.10 0.10 0.11 0.11 0.11 0.11 0.10 0.10 0.10 0.10 0.10 0.10 0.09 0.09 0.09 0.09 0.09 0.09 0.09 0.09 0.09 0.09 0.09 0.10 0.10 0.10 0.10 0.11 0.11 0.11 0.12 0.12 0.13 0.13 0.13 0.14 0.14 0.14 0.14 0.14 0.14 0.14 0.14 0.14 0.14 0.14 0.15 0.15 0.15 0.15 0.16 0.16 0.16 0.16
0.16 0.15 0.15 0.15 0.15 0.14 0.14 0.14 0.14 0.14 0.13 0.13 0.13 0.13 0.12 0.12 0.12 0.12 0.11 0.11 0.11 0.10 0.10 0.10 0.09 0.09 0.09 0.09 0.10 0.10 0.10 0.10 0.10 0.11 0.12 0.11 0.10 0.10 0.10 0.10 0.10 0.10 0.10 0.09 0.09 0.09 0.09 0.09 0.09 0.09 0.09 0.09 0.09 0.09 0.09 0.09 0.10 0.10 0.10 0.11 0.11 0.11 0.12 0.12 0.13 0.13 0.14 0.14 0.14 0.14 0.14 0.14 0.14 0.14 0.14 0.14 0.14 0.15 0.15 0.15 0.15 0.16 0.16 0.16 0.16
0.15 0.15 0.14 0.14 0.14 0.14 0.14 0.14 0.14 0.13 0.13 0.13 0.13 0.12 0.12 0.12 0.12 0.12 0.11 0.11 0.10 0.10 0.10 0.09 0.09 0.09 0.09 0.09 0.09 0.09 0.09 0.10 0.11 0.11 0.11 0.11 0.10 0.10 0.10 0.10 0.10 0.10 0.10 0.09 0.09 0.09 0.09 0.09 0.09 0.09 0.09 0.09 0.09 0.09 0.09 0.09 0.10 0.10 0.10 0.11 0.11 0.11 0.12 0.12 0.13 0.13 0.14 0.14 0.14 0.14 0.14 0.14 0.14 0.14 0.14 0.14 0.14 0.14 0.14 0.15 0.15 0.15 0.15 0.16 0.16
0.14 0.14 0.14 0.14 0.14 0.14 0.13 0.13 0.13 0.13 0.13 0.13 0.12 0.12 0.12 0.12 0.11 0.11 0.11 0.10 0.10 0.10 0.10 0.09 0.09 0.09 0.09 0.09 0.09 0.09 0.10 0.10 0.11 0.11 0.11 0.10 0.10 0.10 0.10 0.10 0.10 0.10 0.09 0.09 0.09 0.09 0.09 0.09 0.09 0.09 0.09 0.09 0.09 0.09 0.09 0.09 0.10 0.10 0.10 0.11 0.11 0.11 0.11 0.12 0.12 0.13 0.14 0.14 0.14 0.14 0.14 0.14 0.13 0.13 0.14 0.14 0.14 0.14 0.14 0.14 0.15 0.15 0.15 0.15 0.15
0.14 0.13 0.13 0.13 0.13 0.13 0.13 0.13 0.13 0.13 0.12 0.12 0.12 0.12 0.11 0.11 0.11 0.11 0.10 0.10 0.10 0.09 0.09 0.09 0.09 0.09 0.09 0.09 0.09 0.09 0.10 0.11 0.11 0.11 0.10 0.10 0.10 0.10 0.10 0.10 0.10 0.10 0.09 0.09 0.09 0.09 0.09 0.09 0.09 0.09 0.09 0.09 0.09 0.09 0.09 0.09 0.10 0.10 0.10 0.10 0.11 0.11 0.12 0.13 0.13 0.13 0.14 0.14 0.14 0.14 0.14 0.14 0.14 0.14 0.14 0.14 0.14 0.14 0.14 0.14 0.15 0.15 0.15 0.15 0.15
0.13 0.13 0.13 0.12 0.12 0.12 0.12 0.12 0.12 0.12 0.12 0.11 0.11 0.11 0.11 0.10 0.10 0.10 0.09 0.09 0.09 0.09 0.09 0.09 0.08 0.08 0.09 0.09 0.09 0.10 0.10 0.11 0.11 0.10 0.10 0.10 0.10 0.10 0.09 0.09 0.09 0.09 0.09 0.09 0.09 0.09 0.09 0.09 0.09 0.09 0.09 0.09 0.09 0.09 0.09 0.09 0.10 0.10 0.10 0.10 0.10 0.11 0.12 0.12 0.13 0.13 0.14 0.14 0.15 0.14 0.14 0.14 0.14 0.14 0.14 0.14 0.14 0.14 0.14 0.14 0.14 0.14 0.15 0.15 0.15
0.11 0.11 0.11 0.10 0.10 0.10 0.10 0.10 0.10 0.10 0.10 0.09 0.09 0.09 0.09 0.09 0.08 0.08 0.08 0.08 0.08 0.08 0.08 0.08 0.08 0.09 0.09 0.09 0.09 0.10 0.11 0.11 0.11 0.10 0.10 0.10 0.09 0.09 0.09 0.09 0.09 0.09 0.09 0.09 0.09 0.09 0.09 0.09 0.09 0.09 0.09 0.09 0.09 0.09 0.09 0.09 0.09 0.10 0.10 0.10 0.10 0.10 0.11 0.12 0.13 0.13 0.14 0.14 0.14 0.14 0.14 0.14 0.14 0.14 0.14 0.14 0.13 0.14 0.14 0.14 0.14 0.14 0.14 0.14 0.15
0.08 0.08 0.08 0.08 0.08 0.08 0.07 0.07 0.07 0.07 0.08 0.08 0.08 0.08 0.08 0.08 0.08 0.08 0.08 0.08 0.08 0.08 0.08 0.08 0.08 0.09 0.09 0.09 0.10 0.10 0.11 0.11 0.10 0.09 0.09 0.09 0.09 0.09 0.09 0.09 0.09 0.09 0.09 0.09 0.09 0.09 0.09 0.09 0.09 0.09 0.09 0.09 0.09 0.09 0.09 0.09 0.09 0.09 0.10 0.10 0.10 0.10 0.11 0.12 0.12 0.13 0.14 0.14 0.14 0.14 0.14 0.14 0.14 0.14 0.14 0.14 0.14 0.14 0.14 0.14 0.14 0.14 0.14 0.14 0.14
0.07 0.07 0.07 0.07 0.07 0.07 0.07 0.07 0.07 0.07 0.07 0.07 0.07 0.07 0.07 0.07 0.07 0.08 0.08 0.08 0.08 0.08 0.08 0.08 0.08 0.09 0.09 0.09 0.10 0.10 0.10 0.10 0.09 0.09 0.09 0.09 0.09 0.08 0.08 0.08 0.08 0.08 0.08 0.08 0.08 0.08 0.08 0.08 0.08 0.08 0.08 0.08 0.08 0.08 0.08 0.08 0.09 0.09 0.09 0.09 0.10 0.10 0.10 0.11 0.12 0.13 0.14 0.14 0.13 0.13 0.13 0.13 0.14 0.14 0.14 0.14 0.14 0.13 0.13 0.13 0.14 0.14 0.14 0.13 0.14
0.07 0.07 0.07 0.07 0.07 0.08 0.08 0.08 0.08 0.08 0.08 0.08 0.08 0.08 0.08 0.08 0.08 0.08 0.08 0.08 0.08 0.08 0.08 0.08 0.08 0.08 0.09 0.09 0.10 0.10 0.09 0.08 0.08 0.08 0.08 0.08 0.08 0.08 0.08 0.08 0.08 0.08 0.08 0.08 0.08 0.08 0.08 0.08 0.08 0.08 0.08 0.08 0.08 0.08 0.08 0.08 0.08 0.08 0.09 0.09 0.09 0.10 0.10 0.11 0.11 0.12 0.13 0.13 0.13 0.13 0.13 0.13 0.13 0.13 0.13 0.13 0.14 0.13 0.13 0.13 0.13 0.13 0.13 0.13 0.13
Wind_Speed
38 38 38 39 39 38 38 37 37 37 37 38 38 39 39 39 39 39 39 39 40 40 41 41 42 42 43 44 44 45 46 46 47 47 48 48 49 49 49 50 50 51 51 51 52 52 53 53 54 54 55 55 56 56 56 57 57 58 58 59 59 60 61 62 65 67 67 65 65 65 64 63 63 62 61 61 61 60 61 61 60 60 59 59 58
39 39 40 39 39 38 37 37 38 38 39 39 39 39 39 39 39 39 39 40 40 41 41 42 42 43 43 44 45 45 46 47 48 48 48 49 49 50 50 50 51 51 51 52 52 52 53 54 54 55 55 56 56 57 57 57 58 58 58 59 60 60 61 63 65 67 68 67 66 67 67 65 65 65 64 63 63 63 62 62 62 62 62 61 61
40 40 40 39 38 38 38 39 39 39 39 39 39 39 39 39 39 39 40 40 40 41 42 42 43 43 44 45 45 46 47 47 48 49 49 49 50 50 50 51 51 52 52 52 53 53 53 54 54 55 55 56 56 57 57 58 58 59 59 59 60 61 61 62 64 66 68 69 67 68 68 67 67 67 66 66 66 65 65 64 64 64 64 63 63
40 40 39 39 38 39 39 39 39 39 39 39 39 39 39 39 39 39 40 41 41 42 42 43 43 44 45 45 46 47 47 48 48 49 49 50 50 50 50 50 51 51 51 52 52 52 53 53 54 54 55 55 56 56 56 57 58 58 59 60 61 62 62 62 64 65 67 69 68 67 68 69 68 68 67 67 67 67 67 66 66 65 65 65 65
40 40 39 39 40 40 39 39 39 39 39 39 39 39 39 39 40 40 41 41 42 42 43 43 44 45 46 46 47 47 48 48 48 48 49 49 49 49 49 49 49 50 50 51 51 51 52 53 53 53 54 54 55 55 56 56 57 58 59 59 60 61 62 62 63 65 66 68 69 68 68 69 69 69 68 68 67 67 67 67 67 67 66 66 66
40 40 40 40 40 40 40 40 40 40 40 40 40 40 40 40 41 41 41 42 42 43 44 44 45 46 46 46 46 47 47 47 47 47 47 48 48 48 48 49 49 49 50 50 51 52 52 53 53 53 54 55 55 56 56 57 57 58 59 59 59 60 61 61 62 63 65 67 68 68 67 68 68 68 68 67 67 67 67 67 67 67 67 67 67
41 41 41 40 40 40 40 40 40 41 41 41 40 40 41 41 41 42 42 43 43 44 44 45 45 45 46 46 46 46 46 47 47 47 47 48 48 48 49 49 50 50 50 51 51 52 52 53 53 54 54 55 55 56 57 57 58 58 59 59 59 60 60 61 61 61 62 64 65 66 67 67 67 67 67 66 66 67 67 67 67 67 67 67 67
41 41 41 41 41 41 41 41 41 41 41 41 41 41 41 41 42 42 43 43 44 44 45 45 45 46 46 46 46 46 46 47 47 47 48 48 49 49 49 50 50 50 51 51 52 52 53 53 54 54 54 55 55 56 57 57 58 58 58 58 59 59 60 60 60 60 61 61 62 63 63 64 64 64 64 64 64 65 65 65 66 67 66 67 67
42 41 41 41 42 41 41 41 41 41 41 41 41 42 42 42 42 43 43 44 44 45 45 45 46 46 46 46 46 47 47 47 47 48 48 49 49 49 50 50 50 51 51 51 52 52 53 53 53 54 54 55 55 56 56 57 57 58 58 57 58 59 59 59 59 59 59 59 60 59 59 59 59 59 60 60 62 63 64 64 66 67 66 67 67
42 42 42 42 42 42 41 41 41 42 42 42 42 42 42 43 43 43 44 44 45 45 45 46 46 46 47 47 47 47 47 47 48 48 49 49 49 49 50 50 50 51 51 51 51 51 52 52 52 53 53 54 54 55 56 56 56 56 56 56 56 56 57 57 57 57 57 58 58 58 58 58 57 57 58 58 59 61 62 63 65 65 65 66 66
43 43 43 43 42 42 42 42 42 42 42 42 42 43 43 44 44 44 45 45 45 45 46 46 47 47 47 47 47 47 47 47 48 49 49 49 49 49 50 50 50 50 50 50 50 50 50 51 51 52 52 53 53 54 54 54 55 55 55 55 55 54 54 54 54 54 55 55 56 55 56 57 56 56 57 57 58 59 60 62 63 64 64 64 64
43 43 43 42 42 42 42 42 42 42 42 43 43 44 44 45 45 45 45 45 45 46 46 47 47 47 47 47 47 47 47 48 48 49 49 49 49 49 49 49 49 49 49 49 49 50 50 50 50 51 52 52 52 53 53 53 54 53 53 53 53 52 52 52 52 52 52 52 53 53 53 54 54 54 54 55 55 56 58 59 61 62 64 65 65
43 43 43 42 42 42 42 42 42 43 43 44 44 45 45 45 45 45 45 46 46 46 46 47 46 46 46 47 47 47 47 47 48 48 48 48 48 48 47 47 48 48 48 49 49 49 49 50 50 50 51 52 52 52 52 52 52 52 51 50 50 50 50 50 50 50 51 51 51 51 51 51 52 51 52 53 54 55 56 57 57 58 61 63 65
43 43 43 42 42 42 43 43 43 44 44 45 45 45 46 46 45 46 46 46 46 46 46 46 46 46 46 46 46 46 46 46 47 47 47 47 47 47 47 47 47 48 48 48 49 49 49 50 50 50 51 51 51 52 51 51 50 50 49 48 48 48 48 48 49 49 49 49 50 50 49 49 50 50 51 52 53 54 54 55 55 56 57 59 61
43 42 42 42 43 43 44 44 45 45 46 46 46 46 46 46 45 46 46 46 46 45 45 45 45 45 45 45 45 45 45 45 46 46 46 46 46 46 47 47 47 48 48 48 49 49 49 50 50 51 51 51 51 51 51 50 49 49 48 48 48 47 47 47 47 48 47 47 48 48 48 48 49 49 50 51 52 52 52 52 53 54 55 56 56
42 42 42 43 44 44 45 45 46 46 46 46 46 46 46 45 45 45 45 45 45 45 44 44 44 44 44 44 44 44 44 45 45 45 45 46 46 46 46 47 47 48 48 48 49 49 50 50 50 51 51 51 51 51 50 49 49 49 48 48 48 47 47 47 47 47 47 47 47 48 48 49 49 49 49 49 49 49 49 49 50 50 51 51 51
42 42 43 44 45 45 46 46 46 46 46 46 46 45 45 45 45 44 44 44 44 43 43 43 43 44 44 43 43 44 44 44 45 45 45 46 46 46 46 47 47 48 48 49 49 49 50 50 50 50 51 50 50 50 50 49 49 49 49 48 47 47 46 46 46 47 47 47 48 48 48 48 48 48 48 48 48 47 46 46 46 46 48 48 48
42 43 43 44 44 45 45 45 45 45 44 44 44 44 43 43 43 43 43 43 43 42 43 43 43 43 43 43 43 44 43 44 45 45 45 45 46 46 46 47 47 48 48 48 48 48 49 49 50 50 50 49 49 49 48 48 48 47 47 47 47 46 45 45 45 46 46 46 47 47 47 47 47 47 46 46 46 45 45 45 45 45 46 46 46
42 43 43 43 44 44 43 43 43 43 42 42 42 41 41 41 41 41 42 42 42 42 42 42 42 42 42 43 43 43 43 43 44 45 45 45 46 46 46 47 47 47 48 47 47 48 48 49 49 49 49 48 48 47 46 46 46 45 46 46 46 45 45 44 45 45 45 45 45 45 45 45 45 45 44 45 44 44 44 44 44 45 46 46 46
41 41 42 42 42 42 42 41 41 40 40 40 40 40 40 40 40 41 41 41 41 41 42 42 42 42 42 42 43 43 43 43 43 44 45 45 46 46 46 46 47 47 47 47 47 47 47 47 47 47 47 46 46 46 45 45 44 44 44 44 44 44 44 44 44 44 44 43 43 43 43 42 42 42 42 42 42 42 43 43 43 44 46 46 46
40 40 40 40 40 39 39 39 39 38 38 39 39 39 39 39 40 40 40 41 41 41 42 42 42 42 42 42 42 42 42 43 43 44 45 45 45 45 45 45 46 46 47 47 47 47 46 45 45 45 45 45 45 44 44 44 44 44 43 44 44 44 44 44 43 43 42 42 41 41 41 41 41 40 40 40 40 41 42 43 44 45 46 46 46
39 38 38 37 37 37 37 37 37 37 38 38 38 38 38 39 39 40 40 41 41 41 42 41 41 42 41 41 41 42 42 43 43 44 44 45 45 45 45 45 46 46 47 47 47 46 45 45 44 44 44 44 44 44 44 44 43 43 43 43 44 44 44 43 42 41 41 40 40 40 40 40 40 40 40 40 40 41 42 43 44 45 46 47 47
37 36 36 36 36 36 36 36 36 37 37 37 37 38 38 38 39 40 40 40 41 41 41 41 41 41 41 41 41 41 42 42 43 44 44 44 44 45 45 45 46 46 47 47 47 46 45 44 44 44 44 43 43 43 42 42 41 41 42 43 43 43 42 41 40 40 40 40 40 40 39 39 39 38 38 39 39 39 40 42 43 45 46 47 48
35 35 35 35 35 35 36 36 36 36 36 36 37 37 38 38 39 39 40 40 41 41 41 41 41 41 41 41 41 41 41 42 42 43 43 44 44 45 45 46 46 47 47 46 46 45 44 43 43 44 44 43 42 41 41 41 41 41 42 42 42 41 40 39 39 39 39 39 38 38 37 37 37 37 37 37 37 37 38 40 41 43 44 46 47
34 34 34 35 35 35 35 35 35 36 36 36 37 37 37 38 39 39 40 40 40 40 40 41 41 41 41 41 41 41 41 41 42 43 43 44 45 45 45 46 47 47 46 45 45 45 44 43 43 43 42 40 40 40 40 40 41 41 41 40 39 38 38 38 38 38 37 37 36 36 36 35 35 35 36 36 36 37 38 39 40 42 43 45 46
34 34 34 34 34 34 34 34 35 35 35 36 36 37 37 38 39 39 39 39 39 40 40 40 40 41 41 41 41 41 41 42 42 43 43 44 45 45 46 46 46 47 46 45 45 44 43 42 41 40 39 39 40 40 39 40 40 39 39 38 37 36 36 36 36 36 36 35 35 35 35 35 35 35 36 36 36 37 38 39 40 42 43 45 46
34 34 34 33 33 33 33 33 34 34 34 35 36 37 37 38 38 39 39 39 39 39 39 40 40 40 41 41 41 41 42 43 43 43 44 44 44 45 45 45 46 46 45 44 43 42 40 39 39 39 39 39 39 38 38 38 37 37 36 35 35 34 35 35 34 34 34 34 35 35 35 35 35 35 35 36 36 37 38 40 41 42 43 44 46
33 33 32 32 33 33 33 33 33 34 34 35 36 36 37 38 38 38 39 39 39 39 39 40 40 40 41 41 41 42 43 43 43 44 44 44 44 44 44 44 44 43 43 42 41 39 39 38 38 37 37 37 36 36 36 35 35 34 34 34 33 33 34 34 34 34 34 34 35 35 36 36 36 36 36 36 37 38 39 40 41 42 43 43 44
33 32 32 32 32 33 33 33 34 34 35 35 36 36 37 37 38 38 38 38 39 39 39 40 40 40 41 42 42 43 43 43 43 44 45 45 45 44 44 43 43 42 41 41 39 37 36 36 35 34 34 34 34 34 33 33 33 33 33 33 33 33 33 33 33 33 34 34 35 35 36 36 36 36 36 37 37 38 39 40 41 41 42 42 42
32 32 32 32 33 33 34 34 35 35 35 36 36 37 37 38 38 38 38 38 39 39 39 40 41 41 42 42 43 43 44 44 44 45 45 45 45 44 43 43 42 41 40 38 36 34 33 33 32 32 32 32 32 32 32 32 32 32 32 32 32 32 32 32 32 33 34 34 34 35 35 35 35 36 36 37 38 38 39 40 40 40 40 40 40
32 32 33 33 34 34 35 35 35 36 36 36 37 37 37 38 38 38 38 39 39 39 40 41 41 42 42 43 43 44 44 44 45 45 44 44 43 43 42 41 40 38 36 34 32 31 31 30 31 31 30 30 30 30 31 31 31 31 31 32 32 32 32 32 32 33 33 34 34 34 34 34 35 36 36 37 38 39 39 39 39 39 39 39 40
33 33 34 34 35 35 36 36 36 37 37 37 37 38 38 38 38 38 38 39 39 40 40 41 41 42 43 43 43 43 44 44 44 44 43 43 42 41 40 39 37 35 32 30 29 29 28 28 29 29 29 29 29 30 30 30 31 31 31 31 32 32 32 32 32 33 33 33 33 33 33 33 34 35 36 37 38 39 39 39 39 39 39 39 39
34 34 35 35 36 36 36 37 37 37 38 38 38 38 38 38 38 38 38 38 39 40 40 41 41 41 42 43 43 43 43 43 43 43 42 41 40 39 37 35 33 31 29 28 27 27 26 27 27 27 27 28 28 29 30 30 30 31 31 31 32 32 32 32 32 32 32 32 32 32 32 33 33 34 35 36 37 38 39 39 39 38 38 38 38
35 35 36 36 37 37 37 38 38 38 38 38 38 38 38 38 38 38 38 39 39 39 39 40 41 41 42 42 43 43 43 42 42 41 40 39 38 36 34 31 29 28 26 26 25 25 25 25 26 26 27 27 28 28 29 30 30 31 31 32 32 32 32 32 32 32 31 31 31 31 31 32 33 34 35 36 36 37 37 37 37 37 37 37 37
36 36 37 37 37 38 38 38 38 38 38 38 38 38 38 38 38 39 39 39 39 39 40 40 41 42 43 42 42 41 41 41 40 39 38 36 35 33 30 28 27 26 25 24 24 24 24 24 25 26 26 27 27 28 29 30 30 31 31 32 32 32 32 32 32 31 31 30 30 31 31 32 32 33 34 35 35 35 35 35 35 35 35 34 34
37 38 38 38 39 39 39 39 39 39 39 39 39 39 39 39 39 39 39 40 40 40 41 41 41 42 42 42 40 40 39 39 38 37 35 34 32 29 27 25 25 24 24 23 23 23 23 24 25 25 26 26 27 28 28 29 30 31 31 31 32 32 31 31 30 30 30 30 30 30 31 31 32 32 33 33 34 34 33 33 33 33 33 33 32
38 39 39 40 40 40 40 40 40 40 40 40 40 40 40 40 40 40 40 40 41 41 41 41 41 42 41 40 39 38 37 37 36 35 33 31 29 26 24 23 23 23 22 22 22 23 23 24 24 25 25 26 26 27 28 29 30 30 31 31 31 30 30 30 29 29 29 29 29 29 30 30 30 31 32 32 32 32 32 32 32 31 31 31 30
40 40 40 41 41 41 41 41 41 41 41 41 41 41 41 41 41 41 41 41 41 42 42 42 42 41 40 38 37 36 36 35 34 32 30 28 25 23 22 22 21 21 21 21 22 22 23 24 24 24 25 25 26 27 28 28 29 30 30 30 30 29 29 29 28 28 28 28 28 28 28 29 29 30 31 31 31 31 30 30 30 30 29 28 27
41 41 41 42 42 41 42 42 42 42 42 41 41 41 41 41 41 41 41 41 42 42 42 41 41 40 39 37 35 35 34 34 32 30 28 25 23 22 21 21 20 21 21 21 21 22 23 23 24 24 25 25 26 26 27 28 29 29 29 29 29 29 28 28 27 27 27 27 27 27 27 28 29 30 30 30 30 29 29 29 28 28 27 26 25
41 42 42 42 42 42 42 42 42 42 42 42 42 42 42 42 42 42 42 42 42 42 41 41 40 39 37 35 34 33 33 32 30 28 26 24 22 21 20 20 20 20 21 21 21 22 23 23 24 24 25 25 26 26 27 27 28 28 28 29 29 28 28 27 26 26 26 26 27 27 27 28 29 29 29 29 28 28 28 27 26 26 25 25 23
42 42 43 43 43 43 43 43 43 43 43 42 42 42 42 42 42 42 42 42 42 42 41 40 40 38 36 34 33 33 32 31 29 26 24 23 21 21 20 20 20 20 21 21 21 22 23 23 24 24 25 25 26 26 26 27 27 28 28 28 28 28 27 26 26 25 26 26 26 26 27 28 28 28 28 27 27 27 26 26 25 24 24 23 22
42 43 43 43 43 44 44 44 43 43 43 43 43 43 43 43 42 42 42 42 42 41 40 40 39 37 35 34 33 32 30 28 27 25 23 21 21 20 20 20 20 20 21 21 21 22 23 24 24 25 25 25 25 26 26 27 27 27 27 27 27 27 27 26 25 25 25 25 26 26 27 27 27 27 26 26 26 26 26 25 24 23 22 21 21
43 43 44 44 44 44 44 44 44 44 44 44 44 44 44 43 43 42 42 42 41 41 40 39 38 36 34 33 32 31 29 27 25 23 22 21 20 20 20 21 21 21 21 21 22 22 23 24 24 25 25 25 25 26 26 26 27 27 27 27 27 27 27 26 26 25 25 25 26 27 27 27 27 26 25 25 25 25 25 24 23 22 21 20 19
43 44 44 44 44 44 45 45 45 45 45 45 45 44 44 43 43 43 42 42 41 40 39 38 36 34 33 32 31 29 27 25 23 22 21 21 20 21 21 21 21 21 21 22 22 23 23 24 24 25 25 25 25 26 26 26 27 26 26 26 26 26 27 26 26 26 25 26 26 27 27 27 27 25 24 24 24 24 23 22 22 21 19 18 18
44 44 45 45 45 45 46 46 46 46 46 46 45 45 44 44 43 43 42 41 40 39 38 37 35 33 32 31 29 27 25 24 22 21 21 21 21 21 21 21 21 22 22 22 23 23 24 24 24 25 25 25 26 26 26 26 26 26 26 25 26 26 26 26 26 26 26 26 26 26 27 27 26 25 24 24 24 23 23 21 20 19 18 17 16
45 45 46 46 47 47 47 47 47 47 47 47 46 46 45 44 44 43 42 41 39 38 37 35 34 32 31 30 28 26 24 22 22 21 21 21 21 21 21 21 22 22 23 23 23 24 24 24 25 25 25 25 26 26 26 26 26 26 26 26 26 25 25 26 26 26 26 25 25 26 26 26 26 25 24 23 23 23 22 21 20 19 18 17 16
46 47 47 48 48 48 49 49 48 48 48 47 47 46 45 44 43 42 41 40 38 37 35 34 33 31 30 28 26 24 23 22 21 21 21 21 21 21 21 22 22 22 23 24 24 24 24 25 25 25 25 26 26 26 26 26 26 26 26 26 26 25 25 25 26 26 25 25 25 25 25 25 25 24 23 22 22 22 21 20 19 19 18 17 15
48 49 49 50 50 50 50 50 49 49 48 48 47 46 45 43 42 41 40 38 37 35 34 33 31 30 28 26 25 23 22 21 21 21 21 21 21 21 21 22 22 23 23 24 24 25 25 25 26 26 26 26 26 26 26 26 25 25 26 26 26 25 25 25 25 25 25 25 25 24 24 24 24 24 23 22 21 21 21 20 19 18 18 16 15
49 50 50 51 51 50 50 50 49 49 48 47 46 45 43 42 41 39 38 37 35 34 33 31 30 28 26 25 23 22 21 21 21 21 21 21 21 21 21 22 22 23 23 24 24 25 25 26 26 26 26 26 26 26 26 26 25 25 25 26 26 26 25 25 25 25 24 24 24 23 23 23 22 22 22 21 20 20 19 19 18 18 17 16 15
50 50 50 50 50 50 49 49 48 47 46 45 44 43 41 40 39 37 36 35 33 32 31 29 27 26 24 23 22 21 21 21 20 21 21 20 20 21 21 21 22 23 23 24 24 25 25 26 26 26 26 26 27 26 26 26 25 25 25 25 25 26 25 24 24 24 24 23 23 23 22 22 22 21 21 21 20 19 19 18 18 17 16 15 14
49 48 48 48 47 47 46 46 45 44 43 42 41 39 38 37 36 34 33 32 31 29 27 26 25 23 22 21 21 20 20 20 20 20 20 20 20 20 21 21 22 23 23 24 24 25 25 26 26 26 26 26 26 26 26 26 25 25 25 25 25 25 24 23 23 23 23 22 22 22 21 21 21 20 20 20 19 19 18 17 17 16 15 14 13
Wind_Direction
283 284 285 286 286 286 286 286 287 288 288 288 289 289 289 289 290 290 290 291 291 291 291 291 291 291 291 291 291 291 290 290 290 290 289 289 289 288 288 288 288 288 287 287 287 287 286 286 285 285 284 284 284 283 283 282 282 281 280 279 278 278 277 276 275 274 273 273 272 272 272 272 271 270 269 268 267 267 266 265 265 264 264 263 262
284 285 285 285 285 285 285 286 287 288 289 289 289 289 290 290 290 291 291 291 292 292 292 292 292 292 292 292 291 291 291 291 290 290 290 289 289 289 289 289 289 288 288 288 288 287 287 286 286 286 285 285 284 284 283 283 282 282 281 280 279 278 277 277 276 275 274 273 273 272 272 271 270 270 269 268 267 267 266 265 264 264 263 263 262
284 284 284 284 284 285 286 287 288 289 289 289 289 290 290 290 291 291 292 292 293 293 293 293 293 293 292 292 292 292 292 291 291 291 290 290 290 290 289 289 289 289 289 289 289 288 288 288 287 287 286 286 285 285 284 284 283 282 282 281 280 279 278 277 277 276 275 274 273 272 272 271 270 270 269 269 268 267 266 265 264 263 263 262 262
283 283 283 284 284 285 286 287 288 288 288 289 289 290 290 291 291 292 293 293 294 294 294 294 293 293 293 293 293 293 292 292 292 291 291 290 290 290 290 290 290 290 290 289 289 289 289 288 288 288 287 287 286 286 285 285 284 283 282 282 281 280 279 278 277 276 276 275 274 273 272 272 271 270 269 269 268 267 266 265 264 263 262 262 261
282 282 283 284 285 285 286 286 287 287 288 289 289 290 290 291 292 293 293 294 294 294 294 294 294 294 294 294 294 293 293 293 292 292 292 291 291 291 291 291 290 290 290 290 290 289 289 289 288 288 288 287 287 286 286 286 285 284 283 283 282 281 280 279 278 277 276 276 275 274 273 272 271 271 270 269 268 267 266 265 264 263 262 261 260
282 282 283 283 284 284 285 286 286 287 288 288 289 289 290 291 292 293 294 294 294 295 295 295 295 295 295 295 294 294 294 293 293 293 292 292 292 292 292 291 291 291 291 290 290 290 289 289 288 288 288 287 287 287 286 286 285 285 284 283 283 282 281 280 279 278 277 276 275 274 273 273 272 271 270 270 269 268 267 266 264 263 262 262 260
282 282 282 283 283 284 284 285 286 287 287 288 288 289 290 291 292 293 294 294 295 295 296 296 296 296 296 295 295 295 295 294 294 293 293 293 293 292 292 292 292 291 291 291 291 290 290 289 289 289 288 288 288 287 287 286 286 285 285 284 283 282 281 281 280 279 278 277 276 275 274 273 272 272 271 270 269 268 267 266 265 263 262 262 261
281 281 282 282 283 283 284 285 286 286 287 287 288 289 290 291 292 293 294 294 295 296 296 297 297 297 297 296 296 295 295 295 294 294 294 294 293 293 293 292 292 292 292 292 291 291 290 290 290 290 289 289 288 288 288 287 287 286 285 284 283 282 282 281 280 279 278 277 277 276 275 274 273 272 271 270 269 268 267 266 265 264 263 262 261
281 281 281 282 282 283 284 285 285 285 286 287 288 289 290 291 292 293 294 294 295 296 296 297 298 298 297 297 296 296 296 295 295 295 295 295 294 294 294 293 293 293 292 292 292 291 291 291 291 290 290 290 289 289 289 288 288 287 286 285 284 283 282 281 280 279 278 277 276 276 275 274 273 272 271 270 269 268 267 266 265 265 264 263 261
280 281 281 282 282 283 284 284 284 285 285 286 287 288 290 291 291 292 293 294 295 295 296 296 297 297 297 297 297 296 296 296 296 296 296 295 295 294 294 294 294 293 293 293 292 292 292 292 291 291 291 291 291 290 290 289 288 287 287 286 285 284 283 281 280 279 278 277 277 276 275 274 273 273 272 270 269 269 268 266 266 265 264 263 262
280 280 281 281 282 283 283 283 284 284 285 286 287 288 289 290 291 292 293 294 294 294 295 296 296 297 297 297 297 297 296 296 296 296 296 296 295 295 294 294 294 294 293 293 293 293 293 292 292 292 292 292 292 291 290 290 289 288 287 286 285 284 283 282 282 281 280 279 278 277 276 275 274 273 272 271 270 269 268 267 266 266 264 263 263
279 280 281 281 281 282 282 283 283 284 284 285 286 287 289 290 291 292 292 293 293 294 294 295 296 297 297 297 297 297 296 296 296 296 296 296 296 295 295 294 294 294 294 293 293 293 293 293 293 293 293 293 293 292 291 290 289 288 287 286 285 284 284 283 282 282 281 280 279 278 277 276 275 274 273 272 271 270 269 268 267 266 264 263 263
279 280 280 281 281 281 281 282 282 283 284 285 286 287 288 289 290 291 292 292 293 293 294 295 296 296 297 297 296 296 296 296 297 297 296 296 296 295 295 294 294 294 294 294 294 294 294 294 294 294 294 294 293 293 292 291 290 289 288 287 286 285 284 283 283 282 281 280 279 278 277 277 276 275 274 274 273 271 270 269 268 267 265 264 263
279 280 280 280 280 281 281 281 282 283 284 285 286 287 288 289 290 290 291 292 292 293 294 295 296 296 296 296 296 297 297 297 297 297 297 296 296 296 295 295 295 295 295 295 295 295 295 295 295 295 295 295 294 293 292 291 290 289 288 287 286 286 285 284 283 282 281 280 279 278 278 277 277 277 276 274 273 272 271 270 269 267 266 265 264
280 280 280 280 280 280 281 281 282 283 284 285 286 287 287 288 289 290 291 292 292 293 294 295 296 296 296 297 297 297 297 297 297 297 297 297 297 296 296 295 296 296 295 295 295 295 295 296 296 296 295 295 294 293 292 291 290 289 288 287 287 286 285 284 284 283 282 281 279 279 278 278 278 277 276 275 273 272 271 270 270 269 268 267 265
280 280 280 280 280 281 281 282 282 283 284 285 285 286 287 288 289 290 291 291 292 293 294 295 296 296 297 297 297 297 298 298 298 298 298 298 297 297 296 296 296 296 296 296 296 296 296 296 296 296 296 295 294 293 292 291 290 289 288 287 286 285 285 284 284 283 282 281 279 279 279 279 278 278 277 275 274 273 272 271 270 269 269 267 266
281 281 281 281 281 282 282 282 283 283 284 284 285 286 287 288 289 290 291 291 293 294 295 296 296 297 297 298 298 298 298 298 299 299 298 298 298 297 297 297 297 297 297 297 297 297 297 297 297 296 296 295 294 294 293 291 289 288 287 286 286 285 285 285 284 283 281 280 280 280 280 280 280 280 278 276 275 274 272 270 269 268 268 267 266
282 282 282 282 283 283 283 283 283 283 284 284 285 286 287 288 289 290 291 292 293 294 295 296 297 297 297 298 298 299 299 299 299 299 299 299 299 298 298 298 298 298 298 298 298 298 298 297 297 297 297 296 295 295 293 291 289 288 287 286 285 285 286 286 285 283 282 281 280 280 280 281 281 280 278 276 275 273 271 269 268 267 267 266 266
283 283 283 284 284 284 284 284 284 284 284 284 285 286 287 288 289 290 291 293 294 294 295 296 297 297 298 298 299 299 299 300 300 300 300 300 300 299 299 299 299 299 299 299 299 299 299 298 298 298 298 297 296 295 294 292 291 289 288 287 286 286 286 286 285 284 283 282 281 281 281 280 280 279 277 275 273 272 270 268 268 267 266 266 266
284 284 284 285 284 284 284 284 284 284 284 285 285 286 287 288 290 291 292 293 294 295 295 296 297 297 298 298 299 299 300 300 300 300 301 301 301 300 300 300 300 299 299 299 299 300 300 300 300 299 299 298 297 296 295 294 292 291 290 289 288 287 287 286 285 284 284 283 283 282 282 281 280 279 277 275 273 271 269 268 267 266 266 266 266
285 285 285 285 285 285 285 284 284 284 285 285 286 287 288 289 290 291 293 294 294 295 296 296 296 297 298 299 299 299 299 300 300 301 301 301 301 301 300 300 300 300 300 300 300 301 300 300 300 300 300 299 297 296 295 294 293 292 291 290 289 289 288 287 286 285 285 284 284 283 283 282 281 280 278 276 274 272 270 269 268 267 266 266 266
285 285 285 285 285 285 285 285 285 285 286 286 287 287 289 290 291 292 293 294 294 295 295 296 296 297 298 298 299 299 299 300 301 301 302 302 302 301 301 301 301 301 301 301 301 301 300 300 300 300 300 298 297 296 296 296 295 294 292 291 290 290 289 287 287 287 286 285 285 285 284 283 282 280 278 277 276 274 273 271 270 269 267 267 266
284 284 285 285 285 285 285 285 286 286 286 286 287 288 289 290 291 293 293 294 295 295 295 296 297 297 298 298 299 299 300 300 301 302 303 303 302 302 302 302 302 302 301 301 301 301 300 300 300 299 298 298 297 297 297 297 296 295 294 293 292 291 290 289 288 288 287 286 286 285 285 284 282 281 280 279 278 277 275 274 272 271 270 269 268
284 284 285 285 285 285 285 286 286 286 287 287 288 289 290 291 292 293 294 294 295 295 295 296 297 297 298 298 299 299 300 301 302 302 303 303 303 303 303 303 303 302 302 301 301 300 300 299 298 298 298 298 298 298 298 298 297 296 295 294 293 292 291 289 289 288 288 287 287 286 285 285 284 283 282 281 281 280 279 277 276 274 273 272 271
284 285 285 285 285 286 286 286 287 287 288 288 289 290 291 292 293 294 294 295 295 295 296 296 297 297 298 298 299 300 301 301 302 303 303 303 303 304 304 304 303 303 302 301 300 300 300 298 298 298 298 298 298 298 298 298 297 297 297 296 294 293 291 291 290 289 289 288 288 287 286 286 285 285 284 284 283 282 281 279 278 277 276 275 273
284 285 286 286 286 286 287 287 288 288 289 289 290 291 292 293 294 294 295 295 295 295 296 297 297 297 298 299 300 300 301 302 302 303 303 304 304 304 305 305 304 303 302 301 301 300 299 298 297 297 298 298 298 299 298 298 299 298 298 297 295 294 292 291 290 290 289 289 288 287 287 287 286 286 285 284 283 282 281 281 280 279 278 277 275
285 285 286 286 286 286 287 287 288 289 290 291 292 293 293 294 294 295 295 295 295 296 296 297 297 298 298 299 300 300 301 301 302 303 304 305 305 305 305 305 304 303 302 302 301 300 298 298 298 298 298 299 300 300 300 300 300 300 299 298 297 295 294 293 292 291 290 289 288 288 287 287 287 286 285 285 284 283 283 283 282 281 280 279 277
285 285 285 286 286 286 287 288 289 290 291 292 294 294 294 295 295 295 295 295 296 296 297 297 298 298 299 299 299 300 300 301 302 303 305 305 306 306 306 305 304 303 303 302 300 299 298 299 299 299 300 300 301 301 302 302 302 301 301 300 299 297 296 295 294 293 291 290 289 289 288 288 287 286 286 285 285 285 286 285 284 283 282 281 279
284 284 284 284 285 286 287 288 289 290 291 293 295 296 296 296 296 296 296 295 295 296 297 298 298 298 299 299 299 300 301 301 303 304 305 306 306 306 305 305 304 303 303 302 301 299 299 300 301 301 301 302 302 302 303 304 304 303 303 302 301 299 298 296 295 294 293 292 291 290 289 289 288 288 287 287 287 287 288 287 286 285 284 282 280
283 282 283 283 284 285 286 287 288 290 291 293 295 296 297 297 297 297 296 296 296 296 297 297 298 298 299 299 299 300 300 301 303 304 305 305 306 305 305 304 304 304 304 303 302 301 301 302 302 303 303 302 303 304 305 305 305 305 305 304 303 301 300 298 297 296 295 293 292 291 291 290 290 290 290 290 289 289 289 289 287 286 285 283 281
281 281 282 283 284 285 286 287 288 290 292 293 295 296 297 297 297 297 297 297 297 297 297 298 298 298 299 299 300 300 300 302 303 304 305 305 305 305 305 305 305 305 305 304 303 303 303 303 304 304 304 304 305 305 306 306 307 307 307 307 306 304 302 300 299 298 297 295 294 293 292 292 292 292 292 292 292 291 291 290 289 287 285 284 282
280 281 282 283 284 285 286 287 288 290 291 292 294 295 296 297 298 298 298 298 298 298 298 298 299 299 300 300 300 301 301 302 303 304 305 305 305 305 305 305 305 305 305 304 304 304 305 305 305 306 307 307 307 308 308 308 308 308 308 308 308 307 305 304 303 301 299 298 296 295 293 293 293 293 293 294 294 293 292 291 289 288 287 285 284
281 281 282 283 284 284 285 286 288 289 290 291 293 294 295 296 297 298 299 299 299 299 299 299 300 300 300 300 301 301 302 302 303 304 305 305 305 305 305 305 305 305 305 305 305 305 306 307 308 309 309 309 310 310 310 310 310 310 310 310 309 309 308 307 305 304 302 300 298 297 295 295 295 295 296 296 295 294 293 292 290 289 287 286 285
281 282 282 283 283 284 285 286 287 288 290 291 292 293 294 295 297 298 299 300 300 300 300 300 301 301 301 301 301 301 302 303 303 304 304 304 305 305 305 304 303 304 305 305 306 306 308 309 310 311 311 312 312 312 313 313 313 312 312 311 311 310 309 309 307 306 304 302 300 298 298 297 298 298 298 297 297 296 295 294 292 290 288 287 286
281 281 282 283 283 284 285 286 287 288 289 290 291 292 293 294 296 297 298 299 300 300 301 301 301 302 302 301 301 301 302 303 303 304 304 304 305 304 303 302 303 304 305 305 306 307 309 310 311 311 312 313 314 315 315 315 315 314 313 312 312 311 311 310 309 307 306 304 302 300 300 300 300 299 299 299 299 298 297 296 294 292 289 287 286
281 281 282 283 283 284 285 285 286 287 288 289 290 291 292 294 295 296 297 298 299 300 301 301 302 302 302 301 301 301 302 303 303 303 304 304 304 302 301 302 303 304 304 305 306 308 310 310 311 312 313 314 316 317 317 317 317 316 315 314 314 313 312 311 310 309 308 306 304 303 302 302 301 301 302 302 301 300 299 298 297 294 291 289 287
281 282 282 283 283 284 284 285 286 286 287 288 289 290 292 293 294 295 296 297 299 300 301 302 302 303 302 301 301 301 301 302 303 303 302 302 301 300 300 301 302 302 303 305 307 309 310 311 312 313 314 315 317 318 319 319 319 319 318 318 317 315 314 313 311 310 309 308 307 306 305 304 304 305 305 304 303 302 301 300 299 297 294 291 289
281 282 282 283 283 284 284 285 285 286 287 287 288 289 290 292 293 294 295 297 298 299 300 301 302 302 302 300 300 301 301 301 302 301 300 299 298 298 298 299 300 301 302 305 307 308 310 311 312 314 315 316 318 319 320 321 321 322 322 322 320 319 317 315 314 313 312 311 310 310 309 308 308 308 307 306 305 304 303 302 301 299 297 295 292
281 282 282 282 283 284 284 284 285 285 286 287 287 288 289 290 291 293 294 296 297 299 300 300 301 301 300 299 300 300 300 301 301 299 298 296 296 296 297 297 298 300 302 304 306 308 309 311 313 315 316 317 318 320 321 322 323 324 325 325 324 323 321 319 317 316 315 314 314 313 312 311 311 310 310 308 307 306 305 304 303 301 299 297 295
281 282 282 282 283 283 284 284 285 285 285 286 287 287 288 289 290 292 293 295 296 297 298 299 299 300 299 298 298 299 299 299 298 296 294 294 294 294 294 295 297 299 301 304 306 307 309 311 313 315 316 318 319 321 322 323 324 325 326 327 327 326 324 322 320 319 318 318 317 316 315 314 313 313 312 310 309 307 306 305 304 302 301 299 297
282 282 282 283 283 283 284 284 284 284 285 285 286 287 287 288 289 291 292 294 295 296 297 297 298 298 297 296 296 297 297 296 295 292 291 290 291 291 292 294 296 298 300 303 305 307 308 310 313 315 317 318 320 321 322 324 325 326 327 328 328 329 328 326 323 322 321 320 320 319 319 318 318 317 315 313 311 310 308 307 305 303 302 301 298
282 283 283 283 283 283 283 283 284 284 284 284 285 286 286 287 288 290 291 292 293 294 295 296 296 296 294 294 294 295 294 293 290 288 287 287 288 289 291 293 295 297 300 302 304 306 308 310 312 314 316 318 320 321 322 324 325 326 327 328 329 331 331 329 327 326 324 323 322 322 322 322 322 321 319 317 315 313 311 309 307 305 303 301 299
283 283 283 283 283 283 283 283 283 283 283 284 284 285 286 286 287 289 290 291 292 292 293 293 294 293 292 292 293 293 291 288 286 284 283 284 286 288 290 292 294 296 299 301 303 305 307 309 311 313 315 317 319 320 322 323 324 325 326 327 329 331 332 331 330 329 328 326 325 324 324 325 325 324 323 322 321 318 315 312 309 307 304 301 299
283 283 283 283 283 283 283 283 283 283 283 283 284 284 285 286 286 287 288 289 290 290 291 291 291 291 290 291 291 289 287 284 281 280 280 282 284 286 289 291 293 295 298 300 301 303 306 308 310 312 314 316 317 319 320 321 323 324 325 326 327 329 331 332 332 331 331 329 328 327 328 328 328 327 326 326 326 324 320 317 314 310 306 303 300
283 283 283 283 283 283 283 283 283 283 283 283 283 284 284 285 285 286 286 287 287 288 288 288 288 288 288 289 288 285 282 279 276 276 278 281 283 286 288 290 292 295 297 299 301 303 305 307 309 310 312 314 315 317 318 320 321 322 323 324 325 327 329 331 331 332 331 330 330 330 331 331 331 330 328 329 329 328 326 322 319 316 312 308 304
284 284 284 284 283 283 283 283 282 282 282 282 283 283 283 283 284 284 284 285 285 285 285 285 285 286 286 286 284 280 277 274 273 274 277 280 282 285 288 290 292 294 296 298 300 302 304 306 307 309 311 312 314 315 316 318 319 320 321 322 323 324 326 328 330 331 332 331 331 332 333 333 334 333 332 331 332 332 330 327 324 321 318 315 311
286 285 285 284 284 283 283 282 282 282 282 282 282 282 282 282 282 282 282 282 282 282 282 282 283 283 283 281 279 276 272 270 271 274 276 279 282 285 287 290 292 294 296 298 300 302 303 305 306 308 309 310 312 313 314 315 316 317 319 321 322 323 324 326 328 330 331 331 332 333 334 335 335 335 335 334 334 335 334 332 329 326 323 320 316
287 286 285 285 284 283 283 282 282 281 281 280 280 280 280 280 280 280 280 280 280 279 279 280 280 280 278 276 274 270 268 268 270 273 276 279 282 285 287 290 292 294 296 298 300 301 303 304 306 307 308 309 310 311 312 312 314 315 317 319 320 321 321 323 325 327 329 330 332 333 334 335 337 337 337 337 337 338 338 338 336 333 329 326 321
288 287 286 285 284 284 283 282 281 280 280 279 279 278 278 278 278 277 277 277 277 276 276 276 276 275 273 271 268 265 265 267 270 273 276 279 282 285 288 290 293 295 297 299 300 302 303 304 305 306 307 308 309 310 310 310 311 313 315 317 318 319 319 321 323 324 326 329 331 333 335 336 337 338 339 339 340 340 340 341 341 339 336 332 328
289 288 287 286 285 284 283 281 280 279 278 278 277 276 276 276 276 275 275 274 274 273 273 272 271 270 268 265 263 262 264 267 270 273 276 279 282 285 288 291 293 296 298 299 300 302 303 304 305 306 307 307 308 309 309 309 309 310 312 314 315 317 318 320 321 322 324 327 329 332 334 336 337 339 340 341 342 342 342 343 344 345 343 340 335
291 290 288 287 286 284 283 282 280 279 278 276 275 275 274 274 273 273 272 271 270 269 268 267 265 264 262 260 259 260 264 267 270 273 276 279 283 286 289 292 294 296 298 300 301 302 303 304 305 306 306 307 308 308 309 308 308 309 310 311 313 315 317 318 319 320 323 325 327 329 331 334 337 339 341 342 343 344 345 345 347 348 349 348 345